Hourly Data Report for October 06, 2017

All times are specified in Local Standard Time (LST). Add 1 hour to adjust for Daylight Saving Time where and when it is observed.

EDMUNDSTON
NEW BRUNSWICK

47°25'00.000" N
68°19'28.040" W
154.20 m
8101303
71590
ERM

Download Data

Hourly Data (October 2017)
Hourly Data Report for October 6, 2017
Temp Definition
°C
Dew Point Temp Definition
°C
Rel Hum Definition
%
Wind Dir Definition
10's deg

Wind Spd Definition
km/h
Visibility Definition
km
Stn Press Definition
kPa
Hmdx Definition


Wind Chill Definition


Weather Definition


TIME
00:00 7.0 5.6 91 0 1   99.35     LegendNANA
01:00 5.2 4.3 94 25 2   99.38     LegendNANA
02:00 4.9 4.2 95   0   99.43     LegendNANA
03:00 3.4 2.6 95 26 1   99.45     LegendNANA
04:00 2.0 1.3 95 32 2   99.48     LegendNANA
05:00 1.2 0.5 95 29 2   99.51     LegendNANA
06:00 1.2 0.6 95 28 3   99.57     LegendNANA
07:00 0.5 -0.1 96 26 2   99.62     LegendNANA
08:00 2.9 2.3 96 24 1   99.68     LegendNANA
09:00 6.8 5.1 89   0   99.70     LegendNANA
10:00 11.2 6.4 72 7 3   99.71     LegendNANA
11:00 13.9 5.7 57 25 11   99.68     LegendNANA
12:00 13.5 4.0 53 22 14   99.64     LegendNANA
13:00 13.4 4.6 55 30 15   99.59     LegendNANA
14:00 14.1 3.3 48 32 10   99.57     LegendNANA
15:00 14.3 2.7 46 31 14   99.58     LegendNANA
16:00 13.9 3.1 48 31 11   99.60     LegendNANA
17:00 13.8 3.6 50 31 6   99.60     LegendNANA
18:00 10.4 3.9 64 32 6   99.67     LegendNANA
19:00 6.8 4.4 84 32 5   99.79     LegendNANA
20:00 3.7 2.2 90 33 3   99.83     LegendNANA
21:00 1.8 0.6 92 33 4   99.88     LegendNANA
22:00 0.9 -0.1 93   0   99.96     LegendNANA
23:00 -0.5 -1.4 94 31 1   100.02   -1 LegendNANA

Notes on Data Quality.

Legend

  • E = Estimated
  • M = Missing
  • NA = Not Available
  • ‡ = Partner data that is not subject to review by the National Climate Archives
Date modified: